Weather History for Salinas, CA

Change the Weather History Date:

Tuesday, October 2, 2012

  Actual Average Record
Temperature  
Mean Temperature 81 °F 63 °F  
Max Temperature 101 °F 74 °F 103 °F (1980)
Min Temperature 60 °F 52 °F 41 °F (1950)
Degree Days  
Heating Degree Days 0 3  
Month to date heating degree days 0 6  
Since 1 July heating degree days 212 201  
Cooling Degree Days 16 1  
Month to date cooling degree days 29 2  
Year to date cooling degree days 54 107  
Growing Degree Days 30 (Base 50)    
Moisture  
Dew Point 46 °F    
Average Humidity 42    
Maximum Humidity 67    
Minimum Humidity 16    
Precipitation  
Precipitation 0.00 in 0.01 in 0.32 in (1938)
Month to date precipitation 0.00 0.02  
Year to date precipitation 7.12 8.94  
Since 1 July precipitation T 0.22  
Sea Level Pressure  
Sea Level Pressure 29.86 in    
Wind  
Wind Speed 8 mph (ESE)    
Max Wind Speed 17 mph    
Max Gust Speed 21 mph    
Visibility 10 miles    
Events      
T = Trace of Precipitation, MM = Missing Value Source: NWS Daily Summary

Daily Weather History Graph

Daily Weather History Graph

Search for Another Location

Airport:

Trip Planner

Search our weather history database for the weather conditions in past years. The results will help you decide how hot, cold, wet, or windy it might be!

Date:

Astronomy

Oct. 02, 2012 Rise Set
Actual Time 7:03 AM PDT 6:47 PM PDT
Civil Twilight 6:37 AM PDT 7:13 PM PDT
Nautical Twilight 6:07 AM PDT 7:43 PM PDT
Astronomical Twilight 5:37 AM PDT 8:13 PM PDT
Moon 8:09 PM PDT (10/2) 9:29 AM PDT (10/2)
Length of Visible Light 12h 36m
Length of Day
11h 44m
Waning Gibbous, 93% of the Moon is Illuminated
Oct 2
Waning Gibbous
Oct 8
Last Quarter
Oct 15
New
Oct 21
First Quarter
Oct 29
Full

Hourly Weather History & Observations

Time (PDT) Temp. Dew Point Humidity Pressure Visibility Wind Dir Wind Speed Gust Speed Precip Events Conditions
12:53 AM 64.9 °F 46.9 °F 52% 29.91 in 10.0 mi Calm Calm - N/A   Clear
1:53 AM 64.9 °F 46.0 °F 50% 29.91 in 10.0 mi East 4.6 mph - N/A   Clear
2:53 AM 64.9 °F 46.0 °F 50% 29.89 in 10.0 mi ESE 8.1 mph - N/A   Clear
3:53 AM 63.0 °F 46.0 °F 54% 29.88 in 10.0 mi ESE 4.6 mph - N/A   Clear
4:53 AM 62.1 °F 45.0 °F 53% 29.88 in 10.0 mi ESE 5.8 mph - N/A   Clear
5:53 AM 63.0 °F 44.1 °F 50% 29.88 in 10.0 mi ESE 9.2 mph - N/A   Clear
6:53 AM 62.1 °F 43.0 °F 50% 29.88 in 10.0 mi East 10.4 mph - N/A   Clear
7:53 AM 66.0 °F 41.0 °F 40% 29.88 in 10.0 mi ESE 12.7 mph - N/A   Clear
8:53 AM 73.0 °F 42.1 °F 33% 29.88 in 10.0 mi ESE 12.7 mph - N/A   Clear
9:53 AM 79.0 °F 43.0 °F 28% 29.89 in 10.0 mi ESE 13.8 mph - N/A   Clear
10:53 AM 86.0 °F 46.0 °F 25% 29.88 in 10.0 mi ESE 10.4 mph - N/A   Clear
11:53 AM 91.9 °F 45.0 °F 20% 29.86 in 10.0 mi ESE 10.4 mph - N/A   Clear
12:53 PM 97.0 °F 43.0 °F 16% 29.84 in 10.0 mi SE 4.6 mph - N/A   Clear
1:53 PM 90.0 °F 48.0 °F 24% 29.81 in 8.0 mi WNW 15.0 mph - N/A   Clear
2:53 PM 86.0 °F 45.0 °F 24% 29.81 in 10.0 mi WNW 16.1 mph - N/A   Clear
3:53 PM 84.9 °F 46.0 °F 26% 29.81 in 10.0 mi WNW 10.4 mph - N/A   Clear
5:53 PM 79.0 °F 48.0 °F 34% 29.82 in 10.0 mi WNW 6.9 mph - N/A   Clear
6:53 PM 77.0 °F 48.9 °F 37% 29.82 in 10.0 mi West 4.6 mph - N/A   Clear
7:53 PM 77.0 °F 45.0 °F 32% 29.83 in 10.0 mi WNW 6.9 mph - N/A   Clear
8:53 PM 70.0 °F 53.1 °F 55% 29.83 in 9.0 mi West 6.9 mph - N/A   Clear
9:53 PM 68.0 °F 52.0 °F 56% 29.85 in 10.0 mi WNW 4.6 mph - N/A   Clear
10:53 PM 64.9 °F 53.1 °F 65% 29.86 in 9.0 mi Calm Calm - N/A   Clear
11:53 PM 62.1 °F 52.0 °F 70% 29.87 in 9.0 mi Calm Calm - N/A   Clear